OK1MKH-8 Weather Reports


time (UTC)temp
C
wind
direction
speed
KPH
gust
KPH
rain 1hr
cm
rain 24hr
cm
rain mn
cm
humidity
%
barometer
mb
20260507151459 15 -1 9.7 20.9 0.00 0.00 0.00 7 1006.6
20260507150959 13 -1 11.3 20.9 0.00 0.00 0.00 7 1006.8
20260507150458 14 -1 8.0 17.7 0.00 0.00 0.00 7 1006.6
20260507145957 15 -1 8.0 17.7 0.00 0.00 0.00 7 1006.5
20260507145457 14 -1 6.4 12.9 0.00 0.00 0.00 7 1006.6
20260507144956 15 -1 9.7 17.7 0.00 0.00 0.00 6 1006.2
20260507144455 13 -1 12.9 25.7 0.00 0.00 0.00 7 1006.8
20260507143954 14 -1 11.3 20.9 0.00 0.00 0.00 7 1006.8
20260507143454 14 -1 11.3 19.3 0.00 0.00 0.00 7 1006.7
20260507142953 15 -1 12.9 25.7 0.00 0.00 0.00 7 1006.6
20260507142452 13 -1 12.9 25.7 0.00 0.00 0.00 7 1007.1
20260507141951 15 -1 12.9 25.7 0.00 0.00 0.00 6 1006.6
20260507141451 16 -1 16.1 27.4 0.00 0.00 0.00 6 1006.3
20260507140950 16 -1 16.1 25.7 0.00 0.00 0.00 6 1006.0
20260507140449 17 -1 14.5 29.0 0.00 0.00 0.00 5 1005.6
20260507135949 18 -1 16.1 33.8 0.00 0.00 0.00 5 1005.3
20260507135448 18 -1 12.9 27.4 0.00 0.00 0.00 5 1005.0
20260507134947 18 -1 14.5 35.4 0.00 0.00 0.00 5 1005.4
20260507134446 18 -1 9.7 27.4 0.00 0.00 0.00 5 1005.2
20260507133946 17 -1 14.5 27.4 0.00 0.00 0.00 6 1005.4
20260507133445 17 -1 11.3 24.1 0.00 0.00 0.00 6 1005.4
20260507132944 17 -1 11.3 25.7 0.00 0.00 0.00 6 1005.3
20260507132444 17 -1 12.9 25.7 0.00 0.00 0.00 5 1005.3
20260507131943 17 -1 12.9 25.7 0.00 0.00 0.00 6 1005.3
20260507131442 17 -1 11.3 20.9 0.00 0.00 0.00 6 1005.4
20260507130941 16 -1 14.5 27.4 0.00 0.00 0.00 6 1005.6
20260507130441 16 -1 12.9 32.2 0.00 0.00 0.00 6 1005.8
20260507125940 16 -1 16.1 29.0 0.00 0.00 0.00 6 1005.9
20260507125439 17 -1 12.9 29.0 0.00 0.00 0.00 6 1005.5
20260507124938 18 -1 14.5 37.0 0.00 0.00 0.00 5 1005.1
20260507124438 18 -1 12.9 27.4 0.00 0.00 0.00 5 1004.7
20260507123937 19 -1 14.5 27.4 0.00 0.00 0.00 5 1004.6
20260507123436 19 -1 12.9 20.9 0.00 0.00 0.00 5 1004.4
20260507122936 18 -1 12.9 25.7 0.00 0.00 0.00 5 1004.6
20260507122435 18 -1 16.1 25.7 0.00 0.00 0.00 5 1004.7
20260507121934 18 -1 14.5 29.0 0.00 0.00 0.00 5 1004.8
20260507121433 18 -1 16.1 37.0 0.00 0.00 0.00 5 1004.6
20260507120933 18 -1 16.1 32.2 0.00 0.00 0.00 5 1004.7
20260507120432 18 -1 12.9 25.7 0.00 0.00 0.00 5 1004.6
20260507115931 18 -1 14.5 24.1 0.00 0.00 0.00 5 1004.7
20260507115431 18 -1 14.5 27.4 0.00 0.00 0.00 5 1004.8
20260507114930 17 -1 17.7 30.6 0.00 0.00 0.00 5 1005.0
20260507114429 17 -1 12.9 25.7 0.00 0.00 0.00 5 1005.1
20260507113928 17 -1 17.7 32.2 0.00 0.00 0.00 5 1005.0
20260507113428 17 -1 16.1 35.4 0.00 0.00 0.00 5 1005.1
20260507112927 18 -1 16.1 25.7 0.00 0.00 0.00 5 1004.7
20260507112426 19 -1 12.9 25.7 0.00 0.00 0.00 5 1004.3
20260507111926 18 -1 14.5 30.6 0.00 0.00 0.00 5 1004.6
20260507111425 19 -1 12.9 32.2 0.00 0.00 0.00 5 1004.5
20260507110924 19 -1 14.5 32.2 0.00 0.00 0.00 5 1004.5
20260507110423 18 -1 11.3 27.4 0.00 0.00 0.00 5 1004.5
20260507105923 20 -1 11.3 22.5 0.00 0.00 0.00 5 1004.0
20260507105422 18 -1 14.5 33.8 0.00 0.00 0.00 5 1004.4
20260507104921 18 -1 12.9 25.7 0.00 0.00 0.00 5 1004.5
20260507104420 17 -1 14.5 30.6 0.00 0.00 0.00 6 1004.9
20260507103920 16 -1 16.1 30.6 0.00 0.00 0.00 5 1005.1
20260507103419 17 -1 12.9 27.4 0.00 0.00 0.00 5 1004.7
20260507102918 18 -1 14.5 25.7 0.00 0.00 0.00 5 1004.7
20260507102418 17 -1 12.9 22.5 0.00 0.00 0.00 5 1004.7
20260507101917 17 -1 14.5 30.6 0.00 0.00 0.00 5 1004.8
20260507101416 17 -1 14.5 32.2 0.00 0.00 0.00 5 1004.6
20260507100915 17 -1 12.9 32.2 0.00 0.00 0.00 5 1004.5
20260507100415 17 -1 14.5 45.1 0.00 0.00 0.00 5 1004.7
20260507095914 17 -1 14.5 33.8 0.00 0.00 0.00 6 1004.6
20260507095413 16 -1 12.9 27.4 0.00 0.00 0.00 6 1004.8
20260507094913 17 -1 19.3 43.5 0.00 0.00 0.00 6 1004.6
20260507094412 17 -1 16.1 37.0 0.00 0.00 0.00 6 1004.4
20260507093911 17 -1 17.7 38.6 0.00 0.00 0.00 6 1004.4
20260507093410 17 -1 19.3 41.8 0.00 0.00 0.00 5 1004.1
20260507092910 18 -1 17.7 32.2 0.00 0.00 0.00 5 1003.8
20260507092409 18 -1 19.3 38.6 0.00 0.00 0.00 5 1003.7
20260507091908 18 -1 16.1 33.8 0.00 0.00 0.00 5 1003.6
20260507091408 18 -1 14.5 25.7 0.00 0.00 0.00 5 1003.7
20260507090907 19 -1 14.5 35.4 0.00 0.00 0.00 5 1003.4
20260507090406 18 -1 16.1 37.0 0.00 0.00 0.00 6 1003.8
20260507085905 17 -1 12.9 30.6 0.00 0.00 0.00 6 1003.7
20260507085405 17 -1 20.9 43.5 0.00 0.00 0.00 6 1004.1
20260507084904 17 -1 14.5 33.8 0.00 0.00 0.00 6 1004.0
20260507084403 17 -1 14.5 32.2 0.00 0.00 0.00 6 1003.5
20260507083902 17 -1 16.1 32.2 0.00 0.00 0.00 6 1003.6
20260507083402 17 -1 14.5 33.8 0.00 0.00 0.00 6 1003.7
20260507082901 17 -1 16.1 30.6 0.00 0.00 0.00 6 1003.8
20260507082400 16 -1 14.5 29.0 0.00 0.00 0.00 6 1004.1
20260507081859 16 -1 16.1 29.0 0.00 0.00 0.00 6 1003.9
20260507081359 16 -1 14.5 35.4 0.00 0.00 0.00 6 1003.6
20260507080858 16 -1 16.1 30.6 0.00 0.00 0.00 6 1003.6
20260507080357 15 -1 17.7 40.2 0.00 0.00 0.00 7 1003.9
20260507075857 16 -1 19.3 37.0 0.00 0.00 0.00 6 1003.7
20260507075356 16 -1 14.5 33.8 0.00 0.00 0.00 6 1003.5
20260507074855 16 -1 12.9 29.0 0.00 0.00 0.00 6 1003.4
20260507074354 16 -1 14.5 32.2 0.00 0.00 0.00 7 1003.6
20260507073854 16 -1 16.1 33.8 0.00 0.00 0.00 7 1003.4
20260507073353 16 -1 14.5 37.0 0.00 0.00 0.00 7 1003.4
20260507072852 16 -1 12.9 33.8 0.00 0.00 0.00 7 1003.3
20260507072351 16 -1 16.1 30.6 0.00 0.00 0.00 7 1003.4
20260507071851 16 -1 16.1 30.6 0.00 0.00 0.00 7 1003.3
20260507071350 16 -1 17.7 32.2 0.00 0.00 0.00 7 1003.3
20260507070849 16 -1 17.7 29.0 0.00 0.00 0.00 6 1003.0
20260507070348 16 -1 16.1 29.0 0.00 0.00 0.00 7 1003.2
20260507065848 16 -1 16.1 27.4 0.00 0.00 0.00 7 1003.0
20260507065347 15 -1 16.1 27.4 0.00 0.00 0.00 7 1003.3
20260507064846 15 -1 16.1 32.2 0.00 0.00 0.00 7 1003.4
20260507064346 15 -1 19.3 41.8 0.00 0.00 0.00 7 1003.3
20260507063845 15 -1 19.3 38.6 0.00 0.00 0.00 7 1003.0
20260507063344 15 -1 17.7 37.0 0.00 0.00 0.00 7 1003.3
20260507062843 15 -1 14.5 22.5 0.00 0.00 0.00 7 1003.2
20260507062343 15 -1 12.9 24.1 0.00 0.00 0.00 7 1002.9
20260507061842 15 -1 14.5 32.2 0.00 0.00 0.00 7 1002.9
20260507061341 15 -1 16.1 32.2 0.00 0.00 0.00 7 1002.9
20260507060841 15 -1 16.1 37.0 0.00 0.00 0.00 7 1002.7
20260507060340 15 -1 16.1 33.8 0.00 0.00 0.00 8 1002.8
20260507055839 15 -1 14.5 32.2 0.00 0.00 0.00 8 1002.6
20260507055338 16 -1 12.9 32.2 0.00 0.00 0.00 7 1002.3
20260507054838 16 -1 9.7 22.5 0.00 0.00 0.00 7 1002.3
20260507054337 15 -1 12.9 20.9 0.00 0.00 0.00 8 1002.4
20260507053836 15 -1 14.5 25.7 0.00 0.00 0.00 8 1002.4
20260507053336 15 -1 16.1 32.2 0.00 0.00 0.00 8 1002.3
20260507052835 15 -1 14.5 27.4 0.00 0.00 0.00 8 1002.3
20260507052334 15 -1 12.9 24.1 0.00 0.00 0.00 8 1002.2
20260507051833 14 -1 14.5 27.4 0.00 0.00 0.00 8 1002.3
20260507051333 15 -1 11.3 22.5 0.00 0.00 0.00 8 1002.1
20260507050832 14 -1 11.3 22.5 0.00 0.00 0.00 8 1002.2
20260507050331 14 -1 9.7 17.7 0.00 0.00 0.00 8 1002.2
20260507045831 13 -1 9.7 20.9 0.00 0.00 0.00 9 1002.5
20260507045330 13 -1 8.0 16.1 0.00 0.00 0.00 9 1002.2
20260507044829 13 -1 9.7 20.9 0.00 0.00 0.00 9 1002.3
20260507044328 13 180 9.7 24.1 0.00 0.00 0.00 9 1002.3
20260507043828 13 -1 8.0 16.1 0.00 0.00 0.00 9 1002.2
20260507043327 13 -1 9.7 19.3 0.00 0.00 0.00 8 1002.1
20260507042826 13 -1 9.7 17.7 0.00 0.00 0.00 9 1002.3
20260507042326 13 -1 11.3 19.3 0.00 0.00 0.00 9 1002.2
20260507041825 13 -1 9.7 17.7 0.00 0.00 0.00 9 1002.2
20260507041324 12 -1 12.9 24.1 0.00 0.00 0.00 9 1002.3
20260507040823 13 180 12.9 24.1 0.00 0.00 0.00 9 1002.2
20260507040323 13 -1 9.7 22.5 0.00 0.00 0.00 9 1002.2
20260507035822 13 -1 12.9 24.1 0.00 0.00 0.00 9 1002.2
20260507035321 12 -1 11.3 20.9 0.00 0.00 0.00 9 1002.2
20260507034820 12 -1 12.9 24.1 0.00 0.00 0.00 9 1002.2
20260507034320 12 -1 12.9 20.9 0.00 0.00 0.00 9 1002.1
20260507033819 12 -1 12.9 22.5 0.00 0.00 0.00 9 1002.2
20260507033318 12 -1 11.3 25.7 0.00 0.00 0.00 9 1002.1
20260507032818 12 -1 14.5 30.6 0.00 0.00 0.00 9 1002.1
20260507032317 12 -1 12.9 25.7 0.00 0.00 0.00 9 1002.2
20260507031816 12 -1 11.3 20.9 0.00 0.00 0.00 9 1002.2
20260507031315 12 -1 11.3 20.9 0.00 0.00 0.00 9 1002.2
20260507030815 12 -1 12.9 19.3 0.00 0.00 0.00 9 1002.3
20260507030314 12 -1 12.9 24.1 0.00 0.00 0.00 9 1002.3
20260507025813 12 -1 14.5 27.4 0.00 0.00 0.00 9 1002.2
20260507025313 12 -1 12.9 20.9 0.00 0.00 0.00 9 1002.3
20260507024812 12 -1 14.5 25.7 0.00 0.00 0.00 9 1002.2
20260507024311 12 -1 14.5 29.0 0.00 0.00 0.00 9 1002.2
20260507023810 12 -1 14.5 27.4 0.00 0.00 0.00 9 1002.1
20260507023310 12 -1 14.5 25.7 0.00 0.00 0.00 9 1002.1
20260507022809 12 -1 14.5 24.1 0.00 0.00 0.00 9 1002.1
20260507022308 12 -1 14.5 27.4 0.00 0.00 0.00 9 1002.1
20260507021807 12 -1 14.5 22.5 0.00 0.00 0.00 9 1002.0
20260507021307 12 -1 12.9 22.5 0.00 0.00 0.00 9 1002.0
20260507020806 12 -1 11.3 20.9 0.00 0.00 0.00 9 1001.9
20260507020305 12 -1 11.3 25.7 0.00 0.00 0.00 9 1002.0
20260507015805 12 -1 9.7 19.3 0.00 0.00 0.00 9 1001.9
20260507015306 12 -1 11.3 20.9 0.00 0.00 0.00 9 1001.8
20260507014803 12 -1 11.3 20.9 0.00 0.00 0.00 9 1001.8
20260507014302 12 -1 9.7 20.9 0.00 0.00 0.00 9 1001.7
20260507013802 12 -1 9.7 20.9 0.00 0.00 0.00 9 1001.4
20260507013301 12 -1 9.7 17.7 0.00 0.00 0.00 9 1001.4
20260507012800 12 -1 9.7 17.7 0.00 0.00 0.00 9 1001.4
20260507012300 12 -1 11.3 17.7 0.00 0.00 0.00 9 1001.4
20260507011759 12 -1 9.7 19.3 0.00 0.00 0.00 9 1001.4
20260507011258 12 -1 9.7 19.3 0.00 0.00 0.00 9 1001.4
20260507010757 12 -1 11.3 22.5 0.00 0.00 0.00 9 1001.3
20260507010257 13 -1 11.3 19.3 0.00 0.00 0.00 9 1001.2
20260507005756 13 -1 12.9 24.1 0.00 0.00 0.00 9 1001.3
20260507005255 13 -1 11.3 19.3 0.00 0.00 0.00 9 1001.3
20260507004754 13 -1 14.5 27.4 0.00 0.00 0.00 9 1001.3
20260507004254 13 -1 12.9 22.5 0.00 0.00 0.00 9 1001.3
20260507003753 13 -1 8.0 19.3 0.00 0.00 0.00 9 1001.0
20260507003252 13 -1 6.4 11.3 0.00 0.00 0.00 9 1000.9
20260507002751 13 -1 9.7 17.7 0.00 0.00 0.00 9 1001.0
20260507002251 13 -1 9.7 17.7 0.00 0.00 0.00 9 1000.7
20260507001750 13 -1 9.7 20.9 0.00 0.00 0.00 9 1000.7
20260507001249 13 -1 9.7 17.7 0.00 0.00 0.00 9 1000.6
20260507000749 13 -1 4.8 12.9 0.00 0.00 0.00 9 1000.6
20260507000248 13 -1 4.8 12.9 0.00 0.00 0.00 9 1000.6
20260506235747 13 -1 4.8 11.3 0.00 0.00 0.38 9 1000.7
20260506235246 12 -1 9.7 16.1 0.00 0.00 0.38 10 1000.9
20260506234746 12 -1 9.7 16.1 0.00 0.00 0.38 10 1000.9
20260506234245 12 -1 9.7 17.7 0.00 0.00 0.38 10 1000.9
20260506233745 13 -1 6.4 14.5 0.00 0.00 0.38 10 1000.7
20260506233244 13 -1 9.7 22.5 0.00 0.00 0.38 10 1000.7
20260506232743 13 -1 9.7 20.9 0.00 0.00 0.38 10 1000.7
20260506232243 13 -1 8.0 17.7 0.00 0.00 0.38 9 1000.7
20260506231742 13 -1 9.7 20.9 0.00 0.00 0.38 9 1000.5
20260506231241 13 -1 9.7 17.7 0.00 0.00 0.38 9 1000.4
20260506230741 13 -1 8.0 16.1 0.00 0.00 0.38 9 1000.4
20260506230240 13 -1 6.4 14.5 0.00 0.00 0.38 9 1000.4
20260506225739 13 -1 9.7 19.3 0.00 0.00 0.38 10 1000.5
20260506225239 13 -1 11.3 22.5 0.00 0.00 0.38 9 1000.5
20260506224738 13 -1 9.7 17.7 0.00 0.00 0.38 10 1000.6
20260506224237 13 -1 8.0 16.1 0.00 0.00 0.38 9 1000.4
20260506223737 13 -1 6.4 11.3 0.00 0.00 0.38 9 1000.3
20260506223236 13 -1 6.4 11.3 0.00 0.00 0.38 10 1000.4
20260506222735 13 -1 8.0 12.9 0.00 0.00 0.36 10 1000.5
20260506222235 13 -1 4.8 9.7 0.00 0.00 0.36 10 1000.3
20260506221734 13 -1 6.4 14.5 0.00 0.00 0.36 10 1000.3
20260506221233 13 -1 6.4 16.1 0.00 0.00 0.36 9 1000.3
20260506220733 13 -1 8.0 17.7 0.00 0.00 0.36 10 1000.3
20260506220232 13 -1 9.7 20.9 0.00 0.00 0.36 10 1000.4
20260506215731 13 -1 9.7 19.3 0.00 0.00 0.33 10 1000.5
20260506215231 13 -1 9.7 19.3 0.00 0.00 0.33 9 1000.4
20260506214730 13 -1 9.7 19.3 0.00 0.00 0.30 10 1000.6
20260506214229 13 -1 11.3 24.1 0.00 0.00 0.30 9 1000.5
20260506213729 13 -1 11.3 22.5 0.00 0.00 0.28 9 1000.6
20260506213228 14 -1 9.7 20.9 0.00 0.00 0.28 9 1000.4
20260506212727 14 -1 8.0 22.5 0.00 0.00 0.25 9 1000.3
20260506212226 15 -1 9.7 22.5 0.00 0.00 0.25 9 1000.2
20260506211726 15 -1 9.7 17.7 0.00 0.00 0.25 9 1000.2
20260506211225 15 -1 8.0 22.5 0.00 0.00 0.25 9 1000.1
20260506210724 15 -1 11.3 22.5 0.00 0.00 0.23 9 1000.0
20260506210224 15 -1 0.0 0.0 0.00 0.00 0.23 9 999.6
20260506205723 16 -1 0.0 0.0 0.00 0.00 0.23 9 999.3
20260506205222 16 -1 0.0 0.0 0.00 0.00 0.23 9 999.2
20260506204721 16 -1 0.0 0.0 0.00 0.00 0.23 9 999.1
20260506204221 16 -1 0.0 0.0 0.00 0.00 0.23 9 999.1
20260506203720 15 -1 0.0 0.0 0.00 0.00 0.23 9 999.1
20260506203219 15 -1 4.8 6.4 0.00 0.00 0.23 9 999.2
20260506202718 15 -1 9.7 17.7 0.00 0.00 0.23 9 999.4
20260506202218 15 -1 8.0 14.5 0.00 0.00 0.23 9 999.3
20260506201717 15 -1 8.0 14.5 0.00 0.00 0.23 9 999.4
20260506201216 15 -1 9.7 17.7 0.00 0.00 0.20 9 999.3
20260506200716 16 -1 8.0 11.3 0.00 0.00 0.20 9 999.1
20260506200215 16 -1 0.0 0.0 0.00 0.00 0.20 9 998.8
20260506195714 16 -1 0.0 0.0 0.00 0.00 0.20 10 998.7
20260506195213 16 -1 0.0 0.0 0.00 0.00 0.20 10 998.6
20260506194713 15 -1 4.8 0.0 0.00 0.00 0.20 10 998.9
20260506194212 15 -1 0.0 4.8 0.00 0.00 0.18 10 998.9
20260506193711 15 -1 4.8 0.0 0.00 0.00 0.15 10 999.0
20260506193210 15 -1 0.0 4.8 0.00 0.00 0.15 10 998.9
20260506192710 15 -1 0.0 0.0 0.00 0.00 0.15 10 998.8
20260506192209 15 -1 0.0 0.0 0.00 0.00 0.15 10 998.9
20260506191708 15 -1 4.8 6.4 0.00 0.00 0.15 10 998.9
20260506191208 15 -1 4.8 6.4 0.00 0.00 0.15 10 998.8
20260506190707 15 -1 0.0 0.0 0.00 0.00 0.15 10 998.5
20260506190206 15 -1 0.0 0.0 0.00 0.00 0.15 10 998.6
20260506185706 15 -1 0.0 0.0 0.00 0.00 0.15 10 998.5
20260506185205 15 -1 0.0 0.0 0.00 0.00 0.15 10 998.3
20260506184704 15 -1 0.0 0.0 0.00 0.00 0.15 10 998.2
20260506184204 15 -1 0.0 0.0 0.00 0.00 0.15 10 998.3
20260506183703 15 -1 0.0 0.0 0.00 0.00 0.15 10 998.2
20260506183202 15 -1 0.0 0.0 0.00 0.00 0.15 10 998.2
20260506182702 15 -1 0.0 0.0 0.00 0.00 0.15 10 998.2
20260506182203 15 -1 0.0 0.0 0.00 0.00 0.15 10 998.2
20260506181700 15 -1 0.0 0.0 0.00 0.00 0.15 10 998.2
20260506181200 15 -1 0.0 0.0 0.00 0.00 0.15 10 998.1
20260506180659 15 -1 4.8 0.0 0.00 0.00 0.15 10 998.2
20260506180158 16 -1 0.0 0.0 0.00 0.00 0.15 9 998.1
20260506175658 16 -1 0.0 0.0 0.00 0.00 0.15 9 998.0
20260506175157 16 -1 0.0 0.0 0.00 0.00 0.15 8 998.0
20260506174656 17 -1 4.8 8.0 0.00 0.00 0.08 8 997.9
20260506174155 18 -1 6.4 8.0 0.00 0.00 0.03 7 997.5
20260506173655 18 -1 0.0 0.0 0.00 0.00 0.03 7 997.2
20260506173154 18 -1 0.0 0.0 0.00 0.00 0.03 7 997.2
20260506172653 18 -1 0.0 0.0 0.00 0.00 0.03 6 997.1
20260506172152 19 -1 0.0 0.0 0.00 0.00 0.03 6 997.0
20260506171652 19 -1 0.0 0.0 0.00 0.00 0.03 6 997.0
20260506171151 20 -1 0.0 0.0 0.00 0.00 0.03 6 996.6
20260506170650 19 -1 0.0 0.0 0.00 0.00 0.03 6 996.8
20260506170150 18 -1 0.0 0.0 0.00 0.00 0.03 6 996.8
20260506165649 18 -1 0.0 0.0 0.00 0.00 0.03 6 997.0
20260506165148 18 -1 0.0 0.0 0.00 0.00 0.03 6 997.0
20260506164647 19 -1 0.0 0.0 0.00 0.00 0.03 6 996.9
20260506164147 21 -1 6.4 0.0 0.00 0.00 0.03 6 996.1
20260506163646 23 180 0.0 4.8 0.00 0.00 0.00 4 995.9
20260506163145 24 180 0.0 0.0 0.00 0.00 0.00 4 995.7
20260506162644 24 180 0.0 0.0 0.00 0.00 0.00 4 995.7
20260506162144 23 180 0.0 0.0 0.00 0.00 0.00 4 996.0
20260506161643 23 180 4.8 6.4 0.00 0.00 0.00 4 996.1
20260506161142 23 180 4.8 6.4 0.00 0.00 0.00 4 996.3
20260506160641 23 180 4.8 8.0 0.00 0.00 0.00 4 996.2
20260506160141 23 180 4.8 9.7 0.00 0.00 0.00 4 996.3
20260506155640 24 180 4.8 14.5 0.00 0.00 0.00 4 996.1
20260506155139 25 180 6.4 11.3 0.00 0.00 0.00 4 996.0
20260506154638 23 180 4.8 9.7 0.00 0.00 0.00 4 996.2
20260506154138 23 180 0.0 4.8 0.00 0.00 0.00 4 996.5
20260506153637 22 180 4.8 6.4 0.00 0.00 0.00 4 996.7
20260506153136 21 180 4.8 9.7 0.00 0.00 0.00 5 997.1
20260506152636 21 180 8.0 16.1 0.00 0.00 0.00 5 997.5
20260506152135 21 180 11.3 20.9 0.00 0.00 0.00 5 997.6